SVA1631 OEAO-OEJN

Flight info

Callsign SVA1631
Flight time 0h 58m
Altitude 37000
Route NADIK DCT KULKI T510 RBG V172 NOMDA
Aircraft A321/M-SDE2E3FGHIRWY/L

Departure

Time 2026-05-05 20:55
Airport Al-Ula International Airport (OEAO)

Arrival

Time 2026-05-05 21:53
Airport King Abdulaziz International Airport (OEJN)
Time Latitude Longitude Altitude Speed Heading
2026-05-05 20:25 26.47883 38.11779 2040 ft 0 kts 211°
2026-05-05 20:43 26.47902 38.11792 2042 ft 4 kts 211°
2026-05-05 20:44 26.47923 38.11806 2040 ft 3 kts 211°
2026-05-05 20:44 26.47945 38.11815 2037 ft 4 kts 161°
2026-05-05 20:44 26.47964 38.11797 2041 ft 4 kts 121°
2026-05-05 20:44 26.47969 38.11788 2037 ft 0 kts 120°
2026-05-05 20:49 26.47967 38.11791 2036 ft 2 kts 120°
2026-05-05 20:49 26.47950 38.11824 2039 ft 8 kts 120°
2026-05-05 20:49 26.47911 38.11899 2036 ft 13 kts 120°
2026-05-05 20:50 26.47867 38.11981 2036 ft 12 kts 120°
2026-05-05 20:50 26.47827 38.12058 2038 ft 11 kts 120°
2026-05-05 20:50 26.47789 38.12132 2037 ft 11 kts 119°
2026-05-05 20:50 26.47752 38.12206 2034 ft 10 kts 119°
2026-05-05 20:51 26.47718 38.12273 2037 ft 9 kts 119°
2026-05-05 20:51 26.47684 38.12341 2035 ft 11 kts 120°
2026-05-05 20:51 26.47648 38.12412 2035 ft 10 kts 118°
2026-05-05 20:51 26.47660 38.12479 2035 ft 11 kts 39°
2026-05-05 20:52 26.47720 38.12537 2034 ft 11 kts 69°
2026-05-05 20:52 26.47701 38.12610 2038 ft 10 kts 118°
2026-05-05 20:52 26.47660 38.12691 2039 ft 13 kts 119°
2026-05-05 20:52 26.47624 38.12777 2032 ft 11 kts 97°
2026-05-05 20:53 26.47669 38.12832 2037 ft 9 kts 30°
2026-05-05 20:53 26.47716 38.12863 2038 ft 7 kts 30°
2026-05-05 20:53 26.47753 38.12880 2036 ft 5 kts 10°
2026-05-05 20:53 26.47781 38.12867 2038 ft 6 kts 305°
2026-05-05 20:54 26.47807 38.12835 2040 ft 5 kts 308°
2026-05-05 20:54 26.47823 38.12803 2038 ft 4 kts 298°
2026-05-05 20:54 26.47857 38.12736 2036 ft 21 kts 299°
2026-05-05 20:54 26.48033 38.12387 2040 ft 86 kts 300°
2026-05-05 20:55 26.48430 38.11609 2039 ft 142 kts 300°
2026-05-05 20:55 26.48987 38.10519 2191 ft 171 kts 299°
2026-05-05 20:55 26.49570 38.09351 2747 ft 176 kts 299°
2026-05-05 20:55 26.50166 38.08150 3373 ft 178 kts 298°
2026-05-05 20:56 26.50793 38.06893 3670 ft 195 kts 300°
2026-05-05 20:56 26.51531 38.05526 3851 ft 217 kts 301°
2026-05-05 20:56 26.52363 38.04011 3988 ft 244 kts 301°
2026-05-05 20:56 26.53290 38.02309 4258 ft 264 kts 301°
2026-05-05 20:57 26.54114 38.00477 5011 ft 268 kts 285°
2026-05-05 20:57 26.54259 37.98400 5784 ft 272 kts 261°
2026-05-05 20:57 26.53574 37.96435 6551 ft 275 kts 234°
2026-05-05 20:57 26.52188 37.94969 7297 ft 279 kts 215°
2026-05-05 20:58 26.50614 37.93728 8039 ft 282 kts 215°
2026-05-05 20:58 26.48980 37.92444 8801 ft 285 kts 215°
2026-05-05 20:58 26.47355 37.91161 9520 ft 288 kts 216°
2026-05-05 20:58 26.45737 37.89879 10202 ft 292 kts 216°
2026-05-05 20:59 26.44014 37.88511 10401 ft 315 kts 216°
2026-05-05 20:59 26.42167 37.87039 10535 ft 337 kts 216°
2026-05-05 20:59 26.40203 37.85477 10727 ft 355 kts 216°
2026-05-05 20:59 26.38163 37.83862 11241 ft 362 kts 214°
2026-05-05 21:00 26.35897 37.82627 11818 ft 366 kts 197°
2026-05-05 21:00 26.33368 37.82158 12402 ft 370 kts 186°
2026-05-05 21:00 26.30794 37.81861 13008 ft 374 kts 186°
2026-05-05 21:00 26.28195 37.81580 13595 ft 377 kts 186°
2026-05-05 21:01 26.25585 37.81303 14154 ft 380 kts 186°
2026-05-05 21:01 26.22932 37.81019 14708 ft 383 kts 186°
2026-05-05 21:01 26.20275 37.80729 15239 ft 386 kts 186°
2026-05-05 21:01 26.17588 37.80430 15744 ft 389 kts 186°
2026-05-05 21:02 26.14888 37.80130 16229 ft 392 kts 186°
2026-05-05 21:02 26.12159 37.79829 16693 ft 396 kts 186°
2026-05-05 21:02 26.09410 37.79525 17138 ft 399 kts 186°
2026-05-05 21:02 26.06641 37.79216 17567 ft 401 kts 186°
2026-05-05 21:03 26.03856 37.78904 17976 ft 404 kts 186°
2026-05-05 21:03 26.01051 37.78593 18387 ft 406 kts 186°
2026-05-05 21:03 25.98268 37.78285 18791 ft 408 kts 186°
2026-05-05 21:03 25.95396 37.77968 19181 ft 411 kts 186°
2026-05-05 21:04 25.92548 37.77654 19599 ft 412 kts 186°
2026-05-05 21:04 25.89730 37.77344 20011 ft 413 kts 186°
2026-05-05 21:04 25.86861 37.77026 20404 ft 416 kts 186°
2026-05-05 21:04 25.83971 37.76706 20763 ft 418 kts 186°
2026-05-05 21:05 25.81068 37.76385 21159 ft 420 kts 186°
2026-05-05 21:05 25.78150 37.76064 21571 ft 422 kts 186°
2026-05-05 21:05 25.75222 37.75742 21962 ft 424 kts 186°
2026-05-05 21:05 25.72271 37.75416 22352 ft 427 kts 186°
2026-05-05 21:06 25.69301 37.75086 22727 ft 429 kts 186°
2026-05-05 21:06 25.66325 37.74757 23102 ft 431 kts 186°
2026-05-05 21:06 25.63329 37.74426 23467 ft 434 kts 186°
2026-05-05 21:06 25.60323 37.74095 23830 ft 435 kts 186°
2026-05-05 21:07 25.57305 37.73763 24148 ft 438 kts 186°
2026-05-05 21:07 25.54251 37.73432 24470 ft 441 kts 186°
2026-05-05 21:07 25.51193 37.73103 24787 ft 443 kts 186°
2026-05-05 21:07 25.48120 37.72771 25095 ft 445 kts 186°
2026-05-05 21:08 25.45023 37.72431 25395 ft 448 kts 186°
2026-05-05 21:08 25.41912 37.72088 25674 ft 451 kts 186°
2026-05-05 21:08 25.38820 37.71744 25954 ft 453 kts 186°
2026-05-05 21:08 25.35679 37.71396 26271 ft 455 kts 186°
2026-05-05 21:09 25.32519 37.71050 26542 ft 458 kts 186°
2026-05-05 21:09 25.29343 37.70702 26824 ft 459 kts 186°
2026-05-05 21:09 25.26154 37.70385 27102 ft 461 kts 182°
2026-05-05 21:09 25.22945 37.70523 27364 ft 463 kts 173°
2026-05-05 21:10 25.19791 37.71269 27610 ft 465 kts 162°
2026-05-05 21:10 25.16793 37.72609 27834 ft 466 kts 153°
2026-05-05 21:10 25.14023 37.74481 28043 ft 468 kts 146°
2026-05-05 21:10 25.11332 37.76508 28247 ft 470 kts 146°
2026-05-05 21:11 25.08621 37.78540 28415 ft 472 kts 146°
2026-05-05 21:11 25.05896 37.80576 28577 ft 474 kts 146°
2026-05-05 21:11 25.03160 37.82615 28764 ft 475 kts 146°
2026-05-05 21:11 25.00423 37.84653 29001 ft 474 kts 146°
2026-05-05 21:12 24.97690 37.86690 29262 ft 473 kts 146°
2026-05-05 21:12 24.94968 37.88719 29522 ft 472 kts 146°
2026-05-05 21:12 24.92255 37.90740 29771 ft 472 kts 146°
2026-05-05 21:12 24.89537 37.92764 30007 ft 471 kts 146°
2026-05-05 21:13 24.86824 37.94782 30247 ft 470 kts 146°
2026-05-05 21:13 24.84115 37.96796 30493 ft 469 kts 146°
2026-05-05 21:13 24.81408 37.98809 30726 ft 469 kts 146°
2026-05-05 21:13 24.78705 38.00818 30914 ft 470 kts 146°
2026-05-05 21:14 24.75991 38.02833 31145 ft 469 kts 146°
2026-05-05 21:14 24.73288 38.04840 31423 ft 468 kts 146°
2026-05-05 21:14 24.70632 38.06814 31712 ft 466 kts 146°
2026-05-05 21:14 24.67954 38.08806 31980 ft 465 kts 146°
2026-05-05 21:15 24.65280 38.10796 32235 ft 464 kts 146°
2026-05-05 21:15 24.62605 38.12783 32489 ft 463 kts 146°
2026-05-05 21:15 24.59928 38.14767 32724 ft 463 kts 146°
2026-05-05 21:15 24.57259 38.16739 32955 ft 462 kts 146°
2026-05-05 21:16 24.54584 38.18713 33151 ft 463 kts 146°
2026-05-05 21:16 24.51905 38.20688 33295 ft 465 kts 146°
2026-05-05 21:16 24.49211 38.22677 33438 ft 466 kts 146°
2026-05-05 21:16 24.46530 38.24659 33723 ft 464 kts 146°
2026-05-05 21:17 24.43869 38.26624 34065 ft 460 kts 146°
2026-05-05 21:17 24.41211 38.28585 34345 ft 458 kts 146°
2026-05-05 21:17 24.38567 38.30533 34590 ft 457 kts 146°
2026-05-05 21:17 24.35933 38.32476 34807 ft 456 kts 146°
2026-05-05 21:18 24.33299 38.34420 35040 ft 456 kts 146°
2026-05-05 21:18 24.30671 38.36358 35242 ft 455 kts 146°
2026-05-05 21:18 24.28043 38.38292 35443 ft 455 kts 146°
2026-05-05 21:18 24.26302 38.39571 35580 ft 454 kts 146°
2026-05-05 21:19 24.23676 38.41501 35786 ft 454 kts 146°
2026-05-05 21:19 24.20209 38.44044 36040 ft 453 kts 146°
2026-05-05 21:19 24.17591 38.45960 36223 ft 453 kts 146°
2026-05-05 21:19 24.14975 38.47876 36391 ft 452 kts 146°
2026-05-05 21:20 24.12359 38.49793 36548 ft 452 kts 146°
2026-05-05 21:20 24.09743 38.51710 36700 ft 452 kts 146°
2026-05-05 21:20 24.07130 38.53625 36851 ft 452 kts 146°
2026-05-05 21:20 24.04516 38.55539 36984 ft 452 kts 146°
2026-05-05 21:21 24.00133 38.58742 37009 ft 452 kts 146°
2026-05-05 21:21 23.94937 38.62543 37009 ft 452 kts 146°
2026-05-05 21:22 23.89705 38.66359 37009 ft 452 kts 146°
2026-05-05 21:22 23.84474 38.70165 37009 ft 452 kts 146°
2026-05-05 21:23 23.79245 38.73969 37010 ft 452 kts 146°
2026-05-05 21:23 23.73966 38.77686 37010 ft 451 kts 153°
2026-05-05 21:24 23.68094 38.80089 37010 ft 451 kts 163°
2026-05-05 21:24 23.62088 38.82092 37009 ft 451 kts 163°
2026-05-05 21:25 23.56082 38.84104 37010 ft 452 kts 163°
2026-05-05 21:25 23.50118 38.86108 37014 ft 452 kts 163°
2026-05-05 21:26 23.44113 38.88119 37016 ft 452 kts 163°
2026-05-05 21:26 23.38106 38.90126 37018 ft 451 kts 163°
2026-05-05 21:27 23.32103 38.92133 37018 ft 451 kts 163°
2026-05-05 21:27 23.26099 38.94140 37018 ft 451 kts 163°
2026-05-05 21:28 23.20091 38.96146 37019 ft 451 kts 163°
2026-05-05 21:28 23.14086 38.98142 37019 ft 451 kts 163°
2026-05-05 21:29 23.08074 39.00126 37019 ft 451 kts 163°
2026-05-05 21:29 23.02070 39.02119 37018 ft 451 kts 163°
2026-05-05 21:30 22.96065 39.04121 37017 ft 451 kts 163°
2026-05-05 21:30 22.90059 39.06119 37015 ft 451 kts 163°
2026-05-05 21:31 22.84089 39.08099 36994 ft 451 kts 163°
2026-05-05 21:31 22.81083 39.09082 36097 ft 452 kts 166°
2026-05-05 21:31 22.77972 39.09706 34689 ft 458 kts 175°
2026-05-05 21:32 22.74774 39.09836 33272 ft 462 kts 179°
2026-05-05 21:32 22.71540 39.09898 31797 ft 467 kts 179°
2026-05-05 21:32 22.68284 39.09978 30247 ft 470 kts 179°
2026-05-05 21:32 22.65008 39.10083 28855 ft 470 kts 178°
2026-05-05 21:33 22.61801 39.10201 28402 ft 449 kts 178°
2026-05-05 21:33 22.58775 39.10333 28275 ft 422 kts 175°
2026-05-05 21:33 22.56003 39.11004 28088 ft 399 kts 158°
2026-05-05 21:33 22.53666 39.12477 27753 ft 382 kts 139°
2026-05-05 21:34 22.51904 39.14599 27504 ft 379 kts 122°
2026-05-05 21:34 22.50813 39.17177 27254 ft 378 kts 104°
2026-05-05 21:34 22.50385 39.19981 26951 ft 379 kts 97°
2026-05-05 21:34 22.49800 39.22745 26407 ft 376 kts 109°
2026-05-05 21:35 22.48879 39.25378 25944 ft 373 kts 111°
2026-05-05 21:35 22.47957 39.27982 25454 ft 370 kts 111°
2026-05-05 21:35 22.47020 39.30568 24964 ft 367 kts 115°
2026-05-05 21:35 22.45778 39.32961 24420 ft 365 kts 126°
2026-05-05 21:36 22.44025 39.34938 23791 ft 365 kts 144°
2026-05-05 21:36 22.41799 39.36192 23290 ft 361 kts 163°
2026-05-05 21:36 22.39335 39.36554 22779 ft 357 kts 184°
2026-05-05 21:36 22.36924 39.35984 22226 ft 354 kts 205°
2026-05-05 21:37 22.34861 39.34580 21693 ft 351 kts 221°
2026-05-05 21:37 22.33071 39.32864 21258 ft 347 kts 222°
2026-05-05 21:37 22.31260 39.31145 20793 ft 344 kts 221°
2026-05-05 21:37 22.29458 39.29448 20285 ft 343 kts 221°
2026-05-05 21:38 22.27668 39.27767 19810 ft 341 kts 221°
2026-05-05 21:38 22.25885 39.26094 19385 ft 336 kts 221°
2026-05-05 21:38 22.24143 39.24459 18813 ft 330 kts 221°
2026-05-05 21:38 22.22420 39.22839 18338 ft 327 kts 221°
2026-05-05 21:39 22.20706 39.21228 17887 ft 325 kts 221°
2026-05-05 21:39 22.18973 39.19680 17516 ft 322 kts 213°
2026-05-05 21:39 22.16966 39.18704 17249 ft 313 kts 193°
2026-05-05 21:39 22.14816 39.18532 16887 ft 309 kts 173°
2026-05-05 21:40 22.12718 39.18937 16523 ft 305 kts 169°
2026-05-05 21:40 22.10648 39.19367 16160 ft 301 kts 169°
2026-05-05 21:40 22.08605 39.19789 15796 ft 298 kts 169°
2026-05-05 21:40 22.06578 39.20209 15432 ft 295 kts 169°
2026-05-05 21:41 22.04570 39.20626 15070 ft 293 kts 169°
2026-05-05 21:41 22.02575 39.21038 14688 ft 291 kts 169°
2026-05-05 21:41 22.00589 39.21447 14309 ft 289 kts 169°
2026-05-05 21:41 21.98623 39.21851 13927 ft 287 kts 169°
2026-05-05 21:42 21.96657 39.22253 13525 ft 287 kts 169°
2026-05-05 21:42 21.94698 39.22654 13121 ft 286 kts 169°
2026-05-05 21:42 21.92754 39.23051 12708 ft 285 kts 169°
2026-05-05 21:42 21.90804 39.23451 12288 ft 285 kts 169°
2026-05-05 21:43 21.88863 39.23852 11935 ft 282 kts 169°
2026-05-05 21:43 21.86941 39.24250 11542 ft 281 kts 169°
2026-05-05 21:43 21.85027 39.24646 11117 ft 281 kts 169°
2026-05-05 21:43 21.83106 39.25043 10657 ft 281 kts 169°
2026-05-05 21:44 21.81186 39.25440 10220 ft 281 kts 169°
2026-05-05 21:44 21.79264 39.25836 9765 ft 281 kts 169°
2026-05-05 21:44 21.77369 39.26226 9316 ft 281 kts 169°
2026-05-05 21:44 21.75447 39.26620 8853 ft 281 kts 169°
2026-05-05 21:45 21.73519 39.27015 8388 ft 282 kts 169°
2026-05-05 21:45 21.71596 39.27409 7924 ft 282 kts 169°
2026-05-05 21:45 21.69681 39.27805 7431 ft 277 kts 169°
2026-05-05 21:45 21.67801 39.28194 6642 ft 273 kts 169°
2026-05-05 21:46 21.65944 39.28579 5852 ft 270 kts 169°
2026-05-05 21:46 21.64105 39.28957 5068 ft 267 kts 169°
2026-05-05 21:46 21.62317 39.29447 4282 ft 264 kts 160°
2026-05-05 21:46 21.60600 39.30122 3511 ft 261 kts 160°
2026-05-05 21:47 21.58896 39.30789 3221 ft 261 kts 160°
2026-05-05 21:47 21.57184 39.31456 3141 ft 262 kts 160°
2026-05-05 21:47 21.55473 39.32100 3141 ft 252 kts 166°
2026-05-05 21:47 21.53854 39.32031 3144 ft 226 kts 206°
2026-05-05 21:48 21.52719 39.30928 2955 ft 221 kts 244°
2026-05-05 21:48 21.52258 39.29365 2786 ft 221 kts 256°
2026-05-05 21:48 21.51822 39.27779 2605 ft 221 kts 252°
2026-05-05 21:48 21.51339 39.26217 2420 ft 220 kts 257°
2026-05-05 21:49 21.51487 39.24636 2301 ft 213 kts 299°
2026-05-05 21:49 21.52551 39.23644 2249 ft 203 kts 336°
2026-05-05 21:49 21.53860 39.23095 2250 ft 201 kts 339°
2026-05-05 21:49 21.55111 39.22598 2253 ft 182 kts 339°
2026-05-05 21:50 21.56235 39.22155 2161 ft 170 kts 339°
2026-05-05 21:50 21.57314 39.21730 2008 ft 159 kts 339°
2026-05-05 21:50 21.58315 39.21336 1805 ft 148 kts 339°
2026-05-05 21:50 21.59269 39.20960 1618 ft 144 kts 339°
2026-05-05 21:51 21.60204 39.20592 1428 ft 142 kts 339°
2026-05-05 21:51 21.61131 39.20226 1247 ft 141 kts 339°
2026-05-05 21:51 21.62054 39.19863 1054 ft 141 kts 339°
2026-05-05 21:51 21.62973 39.19501 867 ft 140 kts 339°
2026-05-05 21:52 21.64802 39.18780 489 ft 140 kts 339°
2026-05-05 21:52 21.65715 39.18418 271 ft 140 kts 339°
2026-05-05 21:52 21.66622 39.18055 96 ft 139 kts 341°
2026-05-05 21:53 21.67486 39.17718 33 ft 114 kts 340°
2026-05-05 21:53 21.68047 39.17498 30 ft 60 kts 340°
2026-05-05 21:53 21.68296 39.17388 28 ft 18 kts 310°
2026-05-05 21:53 21.68351 39.17298 27 ft 10 kts 308°
2026-05-05 21:54 21.68393 39.17241 27 ft 10 kts 308°
2026-05-05 21:54 21.68440 39.17176 27 ft 12 kts 308°
2026-05-05 21:54 21.68486 39.17106 28 ft 10 kts 301°
2026-05-05 21:54 21.68499 39.17039 28 ft 9 kts 252°
2026-05-05 21:55 21.68455 39.17012 28 ft 7 kts 181°
2026-05-05 21:55 21.68412 39.17024 28 ft 6 kts 163°
2026-05-05 21:55 21.68377 39.17037 28 ft 5 kts 160°
2026-05-05 21:55 21.68348 39.17049 28 ft 4 kts 160°
2026-05-05 21:56 21.68314 39.17062 29 ft 6 kts 160°
2026-05-05 21:56 21.68252 39.17086 29 ft 12 kts 160°
2026-05-05 21:56 21.68184 39.17112 29 ft 10 kts 160°
2026-05-05 21:56 21.68124 39.17136 29 ft 9 kts 160°
2026-05-05 21:57 21.68069 39.17157 30 ft 8 kts 160°
2026-05-05 21:57 21.68019 39.17176 30 ft 7 kts 160°
2026-05-05 21:57 21.67975 39.17193 30 ft 6 kts 160°
2026-05-05 21:57 21.67935 39.17208 30 ft 6 kts 160°
2026-05-05 21:58 21.67900 39.17221 31 ft 7 kts 160°
2026-05-05 21:58 21.67845 39.17244 31 ft 9 kts 159°
2026-05-05 21:58 21.67790 39.17267 31 ft 8 kts 159°
2026-05-05 21:58 21.67737 39.17288 31 ft 10 kts 159°
2026-05-05 21:59 21.67672 39.17315 32 ft 10 kts 159°
2026-05-05 21:59 21.67610 39.17340 32 ft 9 kts 160°
2026-05-05 21:59 21.67552 39.17363 32 ft 9 kts 160°
2026-05-05 21:59 21.67499 39.17383 32 ft 8 kts 160°
2026-05-05 22:00 21.67450 39.17402 33 ft 8 kts 160°
2026-05-05 22:00 21.67400 39.17421 33 ft 7 kts 160°
2026-05-05 22:00 21.67354 39.17439 33 ft 8 kts 160°
2026-05-05 22:00 21.67300 39.17461 33 ft 10 kts 159°
2026-05-05 22:01 21.67225 39.17475 33 ft 11 kts 193°
2026-05-05 22:01 21.67182 39.17419 33 ft 10 kts 238°
2026-05-05 22:01 21.67140 39.17366 33 ft 9 kts 226°
2026-05-05 22:01 21.67098 39.17320 34 ft 8 kts 226°
2026-05-05 22:02 21.67057 39.17288 32 ft 5 kts 218°
2026-05-05 22:02 21.67051 39.17258 34 ft 4 kts 274°
2026-05-05 22:02 21.67058 39.17233 34 ft 3 kts 290°
2026-05-05 22:02 21.67066 39.17211 34 ft 3 kts 292°
2026-05-05 22:03 21.67071 39.17199 34 ft 0 kts 292°
2026-05-05 22:03 21.67072 39.17197 34 ft 0 kts 292°
2026-05-05 22:03 21.67073 39.17194 32 ft 1 kts 292°
2026-05-05 22:03 21.67074 39.17191 32 ft 0 kts 292°